[[{"header":{"parameterUnit":"m.s-1","parameterCategory":1,"la1":30.2991,"la2":30.254,"lo1":-89.0895,"lo2":-89.0444,"dy":0.0017,"dx":0.0017,"nx":28,"ny":28,"refTime":"2025-09-16T09:00:00:Z","depth":0,"parameterNumber":2,"parameterNumberName":"U-component_of_WINDS"},"data":[0,0,0,0,0,0,0,0,0,0,0,0,0,0,0,0,0,0,0,0,0,0,0,0,0,0,0,0,0,0,0,0,0,0,0,0,0,0,0,0,0,0,0,0,0,0,0,0,0,0,0,0,0,0,0,0,0,0,0.4817,0.4817,0,0.48,0.48,0.48,0.4784,0.4783,0.4783,0.4783,0.4765,0.4765,0.4764,0,0,0,0,0,0,0,0,0,0,0,0,0,0.4833,0.4833,0.4817,0.4817,0.4817,0.48,0.48,0.48,0.4784,0.4783,0.4783,0.4783,0.4765,0.4765,0.4764,0,0,0,0,0,0,0,0,0,0,0,0,0,0.4823,0.4833,0.4817,0.4807,0.4806,0.48,0.48,0.48,0.4784,0.4783,0.4783,0.4783,0.4765,0.4765,0.4764,0.4768,0,0,0.4763,0.4763,0,0,0,0,0,0,0,0,0.4823,0.4822,0.4809,0.4807,0.4806,0.4794,0.4799,0.4789,0.4784,0.4792,0.4783,0.4783,0.4775,0.4774,0.4771,0.4767,0.4766,0.4763,0.4763,0.4763,0.4762,0,0,0,0,0,0,0,0.4824,0.4823,0.4811,0.4808,0.4807,0.4802,0.48,0.4797,0.4785,0.4791,0.479,0.4788,0.4774,0.4772,0.4771,0.4766,0.4763,0.4763,0.4762,0.4762,0.4762,0.4763,0,0,0,0,0,0,0.4827,0.4823,0.4811,0.481,0.4814,0.4802,0.48,0.4798,0.4785,0.4783,0.4789,0.4788,0.4772,0.4771,0.477,0.4772,0.4763,0.4762,0.4762,0.4762,0.4762,0.4763,0,0,0,0,0,0,0.4827,0.4826,0.4812,0.4816,0.4814,0.4802,0.48,0.4798,0.4795,0.4783,0.4781,0.4788,0.4772,0.477,0.4768,0.4771,0.4762,0.4762,0.4762,0.4762,0.4762,0.4777,0,0,0,0,0,0,0.4827,0.4826,0.4828,0.4817,0.4814,0.4811,0.48,0.4798,0.4795,0.4793,0.4782,0.478,0.4772,0.4769,0.4768,0.477,0.4761,0.4761,0.4762,0.4762,0.4776,0.4778,0.4779,0,0,0,0,0,0.4828,0.4833,0.4828,0.4826,0.4816,0.4811,0.481,0.48,0.4795,0.4796,0.4788,0.4781,0.4771,0.4769,0.4767,0.477,0.4761,0.4762,0.4762,0.4776,0.4778,0.4779,0,0,0,0,0,0,0.4845,0.4831,0.4826,0.4827,0.482,0.4809,0.481,0.4803,0.4797,0.4796,0.4784,0.4782,0.4781,0.4775,0.4773,0.4772,0.4765,0.4765,0.4775,0.4777,0.4779,0.478,0.4761,0,0,0,0,0,0.4848,0.4846,0.4834,0.4836,0.4833,0.4822,0.482,0.4813,0.4805,0.4803,0.4794,0.4787,0.4782,0.478,0.4775,0.4775,0.4772,0.4776,0.4778,0.4779,0.4779,0.4778,0.4779,0.4765,0.4765,0.4765,0,0,0.4856,0.4848,0.4848,0.4839,0.4834,0.4831,0.482,0.4818,0.4815,0.4802,0.4799,0.4793,0.4784,0.4783,0.4782,0.4778,0.4782,0.478,0.4781,0.478,0.4778,0.478,0.4781,0.4765,0.4765,0.4765,0,0,0.4869,0.4863,0.4864,0.4858,0.4849,0.4841,0.4841,0.483,0.4825,0.4822,0.4812,0.4808,0.4801,0.4794,0.479,0.4799,0.4791,0.4797,0.4805,0.4804,0.4805,0.4806,0.4807,0.4808,0.4798,0.4798,0.4798,0,0.4879,0.4875,0.4865,0.4863,0.4858,0.4846,0.4846,0.4841,0.4831,0.4828,0.4824,0.4813,0.4806,0.4802,0.4804,0.4802,0.48,0.4798,0.4805,0.4806,0.4807,0.4809,0.4809,0.4798,0.4798,0.4798,0.4798,0,0.4888,0.4885,0.4886,0.4876,0.4872,0.4871,0.486,0.4857,0.485,0.4843,0.4839,0.483,0.4822,0.4821,0.4814,0.4816,0.4814,0.4808,0.4801,0.4809,0.481,0.4811,0.48,0.4799,0.4799,0.4799,0,0,0.4911,0.4894,0.4895,0.489,0.4878,0.4875,0.4873,0.4866,0.4863,0.4856,0.4853,0.4846,0.484,0.4835,0.4827,0.4826,0.4832,0.482,0.482,0.4822,0.4831,0.4835,0.4836,0.4827,0.4827,0.4827,0.4832,0,0.492,0.4916,0.4906,0.4904,0.49,0.4888,0.4886,0.4878,0.4871,0.4866,0.4858,0.4852,0.4845,0.4842,0.484,0.4831,0.4833,0.4831,0.4823,0.4823,0.4825,0.4837,0.4842,0.4847,0.4832,0.4832,0.4832,0,0.4931,0.4925,0.4923,0.491,0.4908,0.4906,0.4898,0.4894,0.4884,0.4879,0.4873,0.4864,0.486,0.4853,0.4847,0.4845,0.4841,0.4836,0.4836,0.4835,0.4828,0.4835,0.4849,0.4849,0.4833,0.4833,0.4833,0,0.4947,0.4937,0.4934,0.493,0.4916,0.4915,0.4909,0.4899,0.4895,0.4887,0.4884,0.4876,0.4871,0.4865,0.4854,0.4851,0.4848,0.4841,0.4843,0.4843,0.4842,0.4842,0.4855,0.4841,0.4841,0.4841,0.4841,0,0.4958,0.4957,0.4941,0.4939,0.4937,0.4925,0.4923,0.4916,0.4907,0.4903,0.4892,0.4888,0.4874,0.4868,0.486,0.4855,0.4853,0.4848,0.4845,0.4848,0.4849,0.4845,0.4844,0.4841,0.4841,0.4841,0.4841,0,0.4975,0.4964,0.496,0.4947,0.4943,0.4942,0.493,0.4927,0.4919,0.4914,0.4912,0.4898,0.4891,0.4879,0.4869,0.4863,0.4859,0.4855,0.4862,0.486,0.4862,0.4862,0.4872,0.4872,0.4859,0.4859,0.4859,0,0.4982,0.4981,0.4967,0.4964,0.4958,0.4953,0.4948,0.4936,0.4931,0.4919,0.4918,0.4909,0.4902,0.4891,0.488,0.4871,0.4866,0.487,0.4865,0.4868,0.4865,0.4865,0.4865,0.4872,0.4872,0.4872,0.4872,0,0.4996,0.4991,0.4985,0.4976,0.4971,0.4964,0.4956,0.4954,0.494,0.4935,0.4927,0.4921,0.491,0.4901,0.4891,0.4884,0.4875,0.4874,0.4874,0.4877,0.488,0.4877,0.4865,0.4874,0.4874,0.4874,0.4873,0.4873,0.5008,0.5006,0.4995,0.4989,0.4981,0.4974,0.497,0.4961,0.4955,0.4945,0.4938,0.493,0.4919,0.4904,0.4897,0.4891,0.4887,0.4887,0.4887,0.4887,0.4887,0.4882,0.4889,0.4889,0.4889,0.4889,0.4889,0,0.5021,0.5013,0.5007,0.4996,0.4991,0.4983,0.4974,0.4969,0.4963,0.4954,0.4947,0.4937,0.4928,0.4916,0.4906,0.4903,0.4899,0.4901,0.4901,0.4899,0.4892,0.4893,0.4905,0.4905,0.4905,0.4905,0.4905,0.4905,0.5027,0.5022,0.5015,0.5007,0.4999,0.4991,0.4987,0.4979,0.4972,0.4962,0.4954,0.4947,0.4936,0.4925,0.4917,0.4913,0.491,0.4913,0.4908,0.4901,0.49,0.4898,0.4899,0.4912,0.4912,0.4916,0.4916,0.4916]},{"header":{"parameterUnit":"m.s-1","parameterCategory":1,"la1":30.2991,"la2":30.254,"lo1":-89.0895,"lo2":-89.0444,"dy":0.0017,"dx":0.0017,"nx":28,"ny":28,"refTime":"2025-09-16T09:00:00:Z","depth":0,"parameterNumber":3,"parameterNumberName":"V-component_of_WINDS"},"data":[0,0,0,0,0,0,0,0,0,0,0,0,0,0,0,0,0,0,0,0,0,0,0,0,0,0,0,0,0,0,0,0,0,0,0,0,0,0,0,0,0,0,0,0,0,0,0,0,0,0,0,0,0,0,0,0,0,0,3.089,3.089,0,3.0925,3.0925,3.0926,3.0892,3.0891,3.0889,3.0888,3.0921,3.0923,3.0925,0,0,0,0,0,0,0,0,0,0,0,0,0,3.079,3.0792,3.089,3.089,3.0891,3.0925,3.0925,3.0926,3.0892,3.0891,3.0889,3.0887,3.092,3.0923,3.0925,0,0,0,0,0,0,0,0,0,0,0,0,0,3.083,3.0793,3.089,3.0878,3.0878,3.0925,3.0925,3.0926,3.0892,3.089,3.0888,3.0887,3.092,3.0923,3.0926,3.0985,0,0,3.0935,3.0937,0,0,0,0,0,0,0,0,3.0828,3.0834,3.088,3.0879,3.0878,3.0902,3.0902,3.0946,3.0893,3.0887,3.0888,3.0886,3.0916,3.092,3.093,3.0987,3.0988,3.0936,3.0938,3.0939,3.094,0,0,0,0,0,0,0,3.0825,3.0832,3.0904,3.088,3.088,3.087,3.0873,3.091,3.0912,3.0887,3.0885,3.089,3.0915,3.0927,3.0931,3.0989,3.0936,3.0939,3.094,3.0942,3.1093,3.1095,0,0,0,0,0,0,3.0824,3.083,3.0903,3.0905,3.0848,3.0873,3.0877,3.0896,3.0912,3.0912,3.0891,3.0888,3.0923,3.0927,3.0932,3.1,3.0939,3.0942,3.0944,3.1091,3.1093,3.1096,0,0,0,0,0,0,3.0822,3.0831,3.0901,3.0867,3.0875,3.0877,3.0899,3.0898,3.091,3.0915,3.0915,3.0903,3.0922,3.0927,3.0972,3.1001,3.0943,3.0946,3.1088,3.1092,3.1095,3.1139,0,0,0,0,0,0,3.082,3.0831,3.0854,3.0868,3.0877,3.0942,3.0901,3.09,3.0916,3.0912,3.0926,3.0926,3.092,3.0967,3.0975,3.1004,3.0949,3.1086,3.109,3.1094,3.1135,3.1143,3.1151,0,0,0,0,0,3.0816,3.0866,3.0856,3.0865,3.0907,3.0944,3.0949,3.0942,3.0919,3.0941,3.0944,3.0926,3.0997,3.0972,3.0981,3.1011,3.1084,3.1089,3.1093,3.1132,3.1142,3.1151,0,0,0,0,0,0,3.0855,3.0867,3.0856,3.0912,3.0927,3.0938,3.0967,3.0953,3.0975,3.097,3.0959,3.0963,3.1009,3.1015,3.0987,3.1068,3.1036,3.1043,3.1063,3.1072,3.108,3.1077,3.0951,0,0,0,0,0,3.087,3.09,3.0909,3.0957,3.0965,3.0965,3.098,3.0973,3.0988,3.0994,3.1,3.1015,3.104,3.1057,3.1081,3.1136,3.1137,3.1162,3.1169,3.1176,3.1181,3.1208,3.1218,3.1111,3.1111,3.1111,0,0,3.0901,3.0912,3.0931,3.0965,3.0976,3.1005,3.097,3.1004,3.1025,3.0999,3.1041,3.1046,3.1061,3.1111,3.1133,3.1117,3.1211,3.1182,3.1187,3.1189,3.1214,3.1224,3.1233,3.1115,3.1114,3.1113,0,0,3.0973,3.0985,3.1025,3.1036,3.1053,3.1053,3.1062,3.1075,3.1078,3.112,3.11,3.1125,3.117,3.1181,3.1192,3.1266,3.1249,3.1274,3.1314,3.1341,3.1349,3.1357,3.1381,3.139,3.128,3.128,3.128,0,3.1009,3.1054,3.1047,3.1081,3.1095,3.1074,3.1113,3.1125,3.1148,3.1158,3.114,3.1194,3.1203,3.1254,3.1272,3.1283,3.1291,3.1272,3.1349,3.1356,3.1363,3.1385,3.1395,3.1283,3.1283,3.1282,3.1282,0,3.1096,3.1128,3.1158,3.1181,3.1199,3.1235,3.1232,3.1251,3.1242,3.1243,3.1285,3.1295,3.1319,3.1331,3.1323,3.138,3.1369,3.1351,3.1318,3.1376,3.1397,3.1406,3.1287,3.1286,3.1285,3.1284,0,0,3.1193,3.1211,3.1222,3.1231,3.1248,3.1271,3.1306,3.133,3.1345,3.1363,3.139,3.1428,3.141,3.1423,3.1416,3.144,3.1494,3.1418,3.1418,3.1429,3.1555,3.1567,3.1577,3.1484,3.1486,3.1487,3.1552,0,3.1262,3.1323,3.1317,3.1375,3.1402,3.1382,3.1412,3.1424,3.1426,3.1448,3.1449,3.1475,3.1451,3.1459,3.1481,3.1483,3.1519,3.1479,3.1507,3.1508,3.1502,3.1588,3.1602,3.1663,3.1561,3.1562,3.1563,0,3.1352,3.1372,3.1432,3.1443,3.1454,3.1481,3.1501,3.1524,3.1537,3.1536,3.155,3.1539,3.1572,3.154,3.1584,3.1557,3.1569,3.1571,3.1573,3.1574,3.1538,3.1589,3.1682,3.169,3.1577,3.1576,3.1575,0,3.1413,3.1455,3.1495,3.1504,3.1519,3.1538,3.1544,3.1556,3.157,3.1588,3.1597,3.1618,3.1629,3.1646,3.164,3.1618,3.1684,3.1653,3.1683,3.1683,3.1696,3.1695,3.179,3.1708,3.1707,3.1707,3.1707,0,3.149,3.1527,3.1523,3.1547,3.1587,3.1579,3.1619,3.1623,3.1633,3.1657,3.1642,3.1664,3.1656,3.1678,3.1674,3.1709,3.1715,3.1714,3.1712,3.1714,3.1714,3.172,3.1714,3.171,3.1709,3.1709,3.1708,0,3.1564,3.1563,3.1605,3.1615,3.1619,3.1647,3.1655,3.1677,3.1677,3.1708,3.1714,3.1714,3.1739,3.1735,3.1763,3.176,3.1803,3.1798,3.1799,3.1797,3.1826,3.1822,3.1926,3.1938,3.1851,3.1851,3.1852,0,3.1612,3.164,3.1653,3.1668,3.1676,3.17,3.1715,3.1708,3.1723,3.1739,3.1759,3.1783,3.1801,3.1841,3.1842,3.1863,3.1855,3.1891,3.1858,3.1859,3.1853,3.185,3.1852,3.1896,3.1897,3.1898,3.1899,0,3.1697,3.1695,3.1717,3.1737,3.1755,3.1771,3.1785,3.1798,3.1793,3.181,3.1835,3.1849,3.1877,3.1899,3.1918,3.1924,3.191,3.1909,3.1917,3.1918,3.1916,3.1915,3.1813,3.1906,3.1905,3.1905,3.1905,3.1904,3.1758,3.1781,3.1792,3.1816,3.1826,3.184,3.1861,3.1863,3.1884,3.1906,3.1901,3.1929,3.1939,3.1963,3.1971,3.1991,3.1978,3.199,3.1992,3.1995,3.1997,3.1915,3.1995,3.1995,3.1995,3.1995,3.1994,0,3.184,3.1846,3.1868,3.1889,3.1907,3.1893,3.1908,3.1924,3.1948,3.196,3.1978,3.2005,3.2027,3.203,3.205,3.2066,3.206,3.2071,3.2069,3.207,3.2009,3.1999,3.2076,3.2076,3.2076,3.2076,3.2076,3.2075,3.1884,3.1921,3.192,3.1961,3.1967,3.1994,3.2003,3.2015,3.2024,3.2055,3.2073,3.2075,3.2083,3.2103,3.2121,3.2122,3.2129,3.2142,3.214,3.2082,3.2074,3.2066,3.2057,3.2144,3.2144,3.2198,3.2199,3.2199]}]]